NEOSSAT

Last updated on Mon Sep 21 2026 00:03:33 GMT+0000 (Coordinated Universal Time)

1 39089U 13009D 26263.46997778 .00000089 00000+0 45403-4 0 9994 2 39089 98.4227 81.2731 0010367 327.9412 32.1142 14.35854366710411
UTC large
Height (km)
Speed (km/s)
/
Latitude / Longitude
Inclination (degrees)
Orbital Period (minutes)
Azimuth
Elevation
Range (km)
Doppler Factor

Next 0 passes for location: London (51.5072 / 0.1276)

No passes found over London.
NEOSSAT